Weather observations for the past three days for
Worland, Worland Municipal Airport
Metric (Imperial)
Date Time (mdt) Wind (kph) Vis. (km) Weather Sky Cond. Temperature (ºC) Relative Humidity Wind Chill (°C) Heat Index (°C) Pressure Precipitation (cm)
Air Dwpt 6 hour altimeter (cm) sea level (mb) 1 hr 3 hr 6 hr
Max. Min.
24 22:53 Calm 16.09 Fair CLR 10 2.2 59% 75.59 1006.3
24 21:53 E 17 16.09 Fair CLR 9.4 2.8 64% 7 75.59 1006.8
24 20:53 E 13 16.09 Fair CLR 10 3.3 63% 8 75.57 1006.7
24 19:53 NE 9 16.09 Fair CLR 15.6 1.7 39% 75.54 1005.7
24 18:53 E 17 16.09 Fair CLR 17.2 0 31% 75.54 1006.0
24 17:53 NE 11 16.09 Fair CLR 18.3 -1.1 18.3 12.8 27% 75.54 1006.4
24 16:53 NE 13 16.09 Fair CLR 18.3 -1.7 26% 75.59 1007.2
24 15:53 Vrbl 11 16.09 Fair CLR 17.8 -1.7 27% 75.67 1008.1
24 14:53 NE 9 16.09 Fair CLR 16.7 -2.2 28% 75.72 1008.9
24 13:53 Vrbl 6 16.09 Fair CLR 15 -2.8 29% 75.77 1009.8
24 12:53 Calm 16.09 Fair CLR 13.9 -1.7 34% 75.84 1010.8
24 11:53 Vrbl 9 16.09 Fair CLR 12.8 -0.6 12.8 0 40% 75.9 1011.4
24 10:53 Vrbl 11 16.09 Fair CLR 11.7 1.1 48% 75.95 1012.1
24 09:53 Vrbl 11 16.09 Fair CLR 9.4 2.2 61% 8 75.97 1013.2
24 08:53 SE 6 16.09 Fair CLR 7.2 2.2 71% 76.05 1014.4
24 07:53 SE 13 16.09 Fair CLR 5.6 2.2 79% 3 76.07 1015.1
24 06:53 SE 11 16.09 Fair CLR 2.2 1.7 97% -1 76.07 1016.1
24 05:53 SE 11 16.09 Fair CLR 0 -0.6 4.4 -1.1 96% -3 76.1 1016.7
24 04:53 SE 11 16.09 Fair CLR -0.6 -1.1 96% -4 76.1 1016.9
24 03:53 S 7 16.09 Mostly Cloudy BKN070 -0.6 -0.6 100% -3 76.12 1016.7
24 02:53 S 7 16.09 Fair CLR 0.6 0 96% -1 76.15 1016.6
24 01:53 Calm 16.09 Fair CLR 1.7 0.6 93% 76.15 1016.0
24 00:53 S 6 16.09 A Few Clouds FEW080 2.8 1.1 89% 76.17 1016.3
23 23:53 W 11 16.09 Overcast BKN065 OVC080 4.4 2.2 4.4 2.8 86% 2 76.2 1016.0
23 22:53 Calm 16.09 Overcast OVC065 4.4 2.8 89% 76.17 1015.9
23 21:53 W 19 16.09 Mostly Cloudy BKN070 BKN100 4.4 2.8 89% 1 76.15 1015.7
23 20:53 N 13 16.09 Overcast OVC075 4.4 2.8 89% 2 76.07 1014.2
23 19:53 NW 17 16.09 Overcast BKN016 OVC060 4.4 2.8 89% 1 76.05 1013.9
23 18:53 NW 26 16.09 Light Rain OVC014 3.3 2.2 93% -1 75.97 1013.6
23 17:53 NW 39 G 52 11.27 Light Rain and Breezy OVC014 2.8 1.7 11.1 2.8 93% -3 75.92 1012.8
23 16:53 NW 28 G 44 11.27 Light Rain OVC013 3.9 2.2 89% -1 75.84 1011.7
23 15:53 NW 41 16.09 Light Rain and Breezy BKN041 OVC050 5.6 1.7 76% 0 75.77 1010.1
23 14:53 N 28 G 50 16.09 Thunderstorm in Vicinity BKN039 OVC050 7.2 1.7 68% 3 75.64 1008.3
23 13:53 N 26 G 41 16.09 Mostly Cloudy FEW036 SCT046 BKN055 10.6 1.1 52% 75.54 1006.4
23 12:53 NW 15 G 39 16.09 Light Rain FEW041 BKN050 BKN070 8.9 0.6 56% 7 75.51 1006.2
23 11:53 NW 28 16.09 Overcast BKN070 BKN080 OVC100 9.4 -0.6 11.1 7.8 50% 6 75.49 1005.9
23 10:53 N 20 16.09 Overcast OVC095 8.3 0 56% 5 75.46 1005.5
23 09:53 N 15 16.09 Overcast FEW042 BKN060 OVC070 8.3 1.1 61% 6 75.41 1005.0
23 08:53 SW 44 G 59 16.09 Fair and Windy CLR 10.6 -6.1 31% 75.31 1002.3
23 07:53 SW 28 G 43 16.09 Fair CLR 10 1.1 54% 7 75.23 1000.9
23 06:53 S 22 G 31 16.09 Fair CLR 8.3 5.6 83% 5 75.16 999.9
23 05:53 E 22 16.09 Mostly Cloudy FEW070 SCT095 BKN120 8.3 5 9.4 7.2 80% 5 75.11 999.2
23 04:53 W 17 16.09 Light Rain FEW060 BKN075 OVC095 8.3 6.1 86% 6 75.29 1001.6
23 03:53 Vrbl 7 16.09 Overcast BKN075 OVC090 8.9 5.6 80% 8 75.21 1000.7
23 02:53 S 9 16.09 Overcast OVC075 8.3 5.6 83% 7 75.26 1001.4
23 01:53 NE 9 16.09 Overcast OVC090 7.8 5.6 86% 6 75.26 1001.5
23 00:53 SW 6 16.09 Overcast OVC110 8.3 5 80% 75.29 1001.8
22 23:53 S 9 16.09 Fair CLR 7.8 5 18.3 6.7 83% 6 75.26 1001.9
22 22:53 SE 6 16.09 Mostly Cloudy BKN110 8.3 5.6 83% 75.31 1002.8
22 21:53 E 9 16.09 Fair CLR 8.3 4.4 77% 7 75.34 1003.3
22 20:53 Calm 16.09 Fair CLR 12.2 3.3 55% 75.36 1003.2
22 19:53 N 13 16.09 Fair CLR 15 3.3 46% 75.34 1002.6
22 18:53 SW 26 G 43 16.09 A Few Clouds FEW095 17.2 0 31% 75.31 1002.6
22 17:53 S 15 16.09 Overcast OVC100 17.2 -1.7 17.8 13.9 28% 75.34 1003.1
22 16:53 S 13 16.09 A Few Clouds FEW100 17.2 -0.6 30% 75.36 1003.6
22 15:53 S 19 G 28 16.09 Mostly Cloudy BKN100 17.2 -1.1 29% 75.41 1004.0
22 14:53 SE 19 16.09 Partly Cloudy FEW075 SCT100 17.2 -0.6 30% 75.46 1004.9
22 13:53 S 30 16.09 Fair CLR 16.1 -0.6 32% 75.51 1005.7
22 12:53 S 28 G 39 16.09 Fair CLR 15.6 0 35% 75.57 1006.3
22 11:53 SW 13 16.09 Fair CLR 14.4 1.1 14.4 2.8 41% 75.59 1007.1
22 10:53 S 15 16.09 Fair CLR 12.8 0.6 44% 75.67 1008.0
22 09:53 S 13 16.09 Mostly Cloudy BKN100 12.2 0.6 45% 75.72 1008.6
22 08:53 S 9 16.09 Mostly Cloudy BKN110 11.1 1.1 50% 75.74 1009.4
22 07:53 SE 19 16.09 A Few Clouds FEW120 8.9 2.2 63% 6 75.79 1010.1
22 06:53 SE 17 16.09 Fair CLR 5.6 1.1 73% 3 75.84 1010.7
22 05:53 SE 22 16.09 Fair CLR 2.8 0.6 4.4 2.2 86% -2 75.84 1011.5
22 04:53 SE 15 16.09 A Few Clouds FEW120 2.8 0.6 86% -1 75.9 1012.5
22 02:53 SE 20 16.09 Mostly Cloudy BKN120 3.3 1.1 86% -1 76 1013.8
22 01:53 SE 24 16.09 Fair CLR 3.3 1.1 86% -1 76.02 1014.2
22 00:53 SE 22 16.09 Fair CLR 3.9 1.7 86% -0 76.07 1015.0
21 23:53 SE 22 16.09 Fair CLR 4.4 2.2 10.6 4.4 86% 0 76.1 1015.7
Date Time (mdt) Wind (kph) Vis. (km) Weather Sky Cond. Air Dwpt Max. Min. Relative Humidity Wind Chill (°C) Heat Index (°C) altimeter (cm) sea level (mb) 1 hr 3 hr 6 hr
6 hour
Temperature (ºC) Pressure Precipitation (cm)